Flag for Russia Weather past 2 weeks in Murmansk, Russia

Now
34 °F

Partly sunny.


Feels Like: 31 °F
Forecast: 23 / 33 °F
Wind: 3 mph from North

Location: Murmansk Airport

Current Time: Mar 3, 2015 at 12:03:02 PM

Latest Report: Mar 3, 2015 at 11:30 AM


Visibility: N/A

Pressure: 29.65 "Hg

Humidity: 75%

Dew point: 27 °F

Location of MurmanskLocation

Historic Weather in Murmansk — Graph

°F

Murmansk temperature yesterday

Maximum temperature yesterday: 37 °F (at 12:30 PM)
Minimum temperature yesterday: 32 °F (at 2:30 AM)
Average temperature yesterday: 34 °F

Past Weeks' High & Low Weather Summary

 TemperatureHumidityPressure
High37 °F (Mar 2, 12:30 PM)93% (Feb 20, 4:00 AM)30.09 "Hg (Feb 20, 4:00 AM)
Low1 °F (Feb 24, 2:00 AM)54% (Feb 16, 7:30 PM)28.94 "Hg (Feb 20, 7:00 PM)
Average30 °F74%29.48 "Hg
* Reported Feb 16 11:00 AM — Mar 3 11:00 AM, Murmansk, Weather by CustomWeather, © 2015

Note: Actual official high and low records may vary slightly from our data, if they occured in-between our weather recording intervals... More about our weather records

Advertising

Murmansk weather history for previous 24 hours

 ConditionsComfort  
Time TempWeatherWind HumidityBarometerVisibility
11:00 AM
Tue, Mar 3
34 °FPartly sunny.3 mph75%29.65 "HgN/A
10:30 AM34 °FPartly sunny.3 mph75%29.65 "HgN/A
10:00 AM32 °FPartly sunny.3 mph80%29.65 "HgN/A
9:30 AM32 °FPartly sunny.3 mph80%29.62 "HgN/A
9:00 AM32 °FPassing clouds.3 mph80%29.62 "HgN/A
8:30 AM32 °FPassing clouds.3 mph80%29.62 "HgN/A
8:00 AM32 °FPartly cloudy.3 mph75%29.62 "HgN/A
7:30 AM32 °FPassing clouds.3 mph80%29.62 "HgN/A
7:00 AM32 °FPassing clouds.8 mph80%29.62 "HgN/A
6:30 AM32 °FPassing clouds.10 mph80%29.62 "HgN/A
5:30 AM34 °FPassing clouds.8 mph70%29.62 "HgN/A
5:00 AM32 °FPassing clouds.8 mph75%29.59 "HgN/A
4:30 AM32 °FPassing clouds.1 mph75%29.59 "HgN/A
4:00 AM32 °FPassing clouds.3 mph75%29.59 "HgN/A
3:30 AM34 °FPassing clouds.6 mph70%29.59 "HgN/A
3:00 AM32 °FPassing clouds.8 mph75%29.59 "HgN/A
2:30 AM32 °FPassing clouds.6 mph75%29.59 "HgN/A
2:00 AM32 °FPassing clouds.8 mph75%29.59 "HgN/A
1:30 AM34 °FPartly cloudy.8 mph70%29.59 "HgN/A
1:00 AM32 °FPartly cloudy.10 mph75%29.56 "HgN/A
12:30 AM32 °FPassing clouds.6 mph75%29.56 "HgN/A
12:00 AM34 °FPassing clouds.3 mph70%29.56 "HgN/A
11:30 PM
Mon, Mar 2
34 °FPassing clouds.6 mph75%29.56 "HgN/A
11:00 PM34 °FPassing clouds.6 mph75%29.56 "HgN/A
10:30 PM34 °FPassing clouds.3 mph75%29.56 "HgN/A
10:00 PM34 °FPassing clouds.3 mph70%29.53 "HgN/A
9:30 PM34 °FPassing clouds.6 mph70%29.53 "HgN/A
9:00 PM32 °FPassing clouds.6 mph75%29.53 "HgN/A
8:30 PM32 °FPartly cloudy.6 mph75%29.53 "HgN/A
8:00 PM32 °FPassing clouds.6 mph75%29.53 "HgN/A
7:30 PM34 °FClear.6 mph70%29.50 "Hg10 mi
7:00 PM34 °FClear.13 mph70%29.50 "Hg10 mi
6:30 PM34 °FPartly sunny.13 mph70%29.50 "HgN/A
6:00 PM36 °FPartly sunny.10 mph60%29.50 "HgN/A
5:30 PM36 °FPartly sunny.10 mph65%29.50 "HgN/A
5:00 PM36 °FPartly sunny.8 mph65%29.50 "HgN/A
4:30 PM36 °FBroken clouds.8 mph65%29.50 "HgN/A
4:00 PM36 °FBroken clouds.6 mph65%29.50 "HgN/A
3:30 PM36 °FBroken clouds.8 mph65%29.50 "HgN/A
3:00 PM36 °FBroken clouds.8 mph65%29.50 "HgN/A
2:30 PM36 °FPartly sunny.10 mph65%29.50 "HgN/A
2:00 PM36 °FPartly sunny.6 mph70%29.50 "HgN/A
1:30 PM36 °FPartly sunny.10 mph65%29.50 "HgN/A
1:00 PM37 °FPartly sunny.13 mph60%29.47 "HgN/A
12:30 PM37 °FBroken clouds.10 mph60%29.47 "HgN/A
12:00 PM36 °FBroken clouds.10 mph65%29.47 "HgN/A
Weather by CustomWeather, © 2015

See weather overviewHow to use our weather pages